[[{"header":{"parameterUnit":"m.s-1","parameterCategory":1,"la1":30.2991,"la2":30.254,"lo1":-89.0895,"lo2":-89.0444,"dx":0.0017,"dy":0.0017,"nx":28,"ny":28,"refTime":"2022-12-03T09:00:00:Z","depth":0,"parameterNumber":2,"parameterNumberName":"U-component_of_WINDS"},"data":[0,0,0,0,0,0,0,0,0,0,0,0,0,0,0,0,0,0,0,0,0,0,0,0,0,0,0,0,0,0,0,0,0,0,0,0,0,0,0,0,0,0,0,0,0,0,0,0,0,0,0,0,0,0,0,0,0,0,0.0816,0.0816,0,0.0825,0.0825,0.0825,0.0788,0.0787,0.0786,0.0785,0.0799,0.0801,0.0802,0,0,0,0,0,0,0,0,0,0,0,0,0,0.0771,0.0772,0.0816,0.0816,0.0816,0.0825,0.0825,0.0825,0.0788,0.0787,0.0786,0.0785,0.0799,0.0801,0.0802,0,0,0,0,0,0,0,0,0,0,0,0,0,0.0786,0.0772,0.0815,0.0798,0.0797,0.0825,0.0825,0.0825,0.0789,0.0787,0.0785,0.0784,0.0798,0.0801,0.0803,0.0849,0,0,0.0809,0.081,0,0,0,0,0,0,0,0,0.0786,0.0788,0.0801,0.08,0.0798,0.0804,0.0815,0.0833,0.0789,0.0792,0.0785,0.0783,0.0803,0.0804,0.081,0.085,0.085,0.0809,0.0811,0.0811,0.0812,0,0,0,0,0,0,0,0.0785,0.0788,0.0819,0.0801,0.0799,0.0792,0.0792,0.0818,0.0807,0.0792,0.0789,0.079,0.0801,0.0808,0.081,0.085,0.0809,0.0811,0.0812,0.0813,0.0929,0.0931,0,0,0,0,0,0,0.0785,0.0787,0.0819,0.082,0.0787,0.0794,0.0795,0.0804,0.0806,0.0805,0.0792,0.0789,0.0805,0.0807,0.081,0.0864,0.0811,0.0813,0.0815,0.0928,0.093,0.0932,0,0,0,0,0,0,0.0784,0.0788,0.0819,0.0803,0.0806,0.0797,0.0807,0.0805,0.0811,0.0806,0.0804,0.08,0.0804,0.0807,0.0839,0.0864,0.0814,0.0816,0.0925,0.0928,0.0931,0.0973,0,0,0,0,0,0,0.0783,0.0788,0.0804,0.0803,0.0807,0.0846,0.0809,0.0806,0.0814,0.081,0.0813,0.0812,0.0803,0.0836,0.0841,0.0866,0.0818,0.0923,0.0927,0.093,0.097,0.0977,0.0983,0,0,0,0,0,0.0782,0.0817,0.0805,0.0809,0.0826,0.0848,0.085,0.0837,0.0816,0.0833,0.083,0.0812,0.0861,0.084,0.0845,0.0871,0.0922,0.0926,0.093,0.0966,0.0976,0.0983,0,0,0,0,0,0,0.0823,0.0816,0.0803,0.0839,0.0844,0.0841,0.0862,0.0847,0.0859,0.0855,0.0839,0.0841,0.0876,0.0877,0.0853,0.0917,0.0888,0.0893,0.0914,0.0923,0.093,0.0928,0.082,0,0,0,0,0,0.0836,0.0852,0.0846,0.0878,0.0881,0.0871,0.088,0.0869,0.0875,0.0877,0.0876,0.0884,0.09,0.0912,0.0927,0.097,0.0971,0.0991,0.0998,0.1004,0.1008,0.1031,0.104,0.0945,0.0945,0.0945,0,0,0.0863,0.0862,0.0873,0.0886,0.0889,0.0907,0.0873,0.0894,0.0908,0.0881,0.091,0.091,0.0918,0.0955,0.0972,0.0957,0.1035,0.1009,0.1013,0.1015,0.1036,0.1046,0.1054,0.0948,0.0947,0.0947,0,0,0.0922,0.0922,0.0949,0.0952,0.0956,0.0949,0.0956,0.0956,0.0954,0.0983,0.0963,0.0981,0.101,0.1016,0.1023,0.1085,0.1069,0.1091,0.1127,0.115,0.1157,0.1164,0.1186,0.1194,0.1096,0.1096,0.1096,0,0.0956,0.0981,0.0965,0.0987,0.0994,0.0969,0.0996,0.1001,0.101,0.1016,0.1,0.1036,0.1039,0.1078,0.1093,0.11,0.1108,0.109,0.1157,0.1164,0.117,0.1191,0.1199,0.1098,0.1098,0.1098,0.1098,0,0.1022,0.104,0.1062,0.1069,0.1079,0.1104,0.1093,0.1105,0.1095,0.109,0.1121,0.1124,0.114,0.1149,0.1139,0.1186,0.1177,0.116,0.113,0.1182,0.1201,0.1209,0.1102,0.1101,0.11,0.11,0,0,0.1106,0.1105,0.1113,0.1116,0.1119,0.1134,0.1159,0.1172,0.1183,0.1191,0.1212,0.1238,0.1221,0.1229,0.122,0.124,0.1289,0.122,0.122,0.1232,0.1343,0.1355,0.1365,0.1279,0.1281,0.1282,0.1342,0,0.1163,0.1202,0.119,0.123,0.1247,0.1224,0.1246,0.1251,0.1249,0.1264,0.1262,0.128,0.1257,0.1262,0.1281,0.1279,0.1311,0.1275,0.13,0.1301,0.1297,0.1375,0.1388,0.1444,0.1349,0.1351,0.1352,0,0.1235,0.1243,0.1286,0.1286,0.1293,0.1312,0.1324,0.1338,0.1345,0.1341,0.135,0.1338,0.1364,0.1335,0.1371,0.1347,0.1357,0.1358,0.136,0.1361,0.1328,0.1377,0.1462,0.147,0.1363,0.1362,0.1362,0,0.1291,0.1314,0.1342,0.1346,0.1347,0.1361,0.1363,0.1367,0.1376,0.1388,0.1394,0.1409,0.1417,0.143,0.1422,0.1402,0.146,0.143,0.1458,0.1459,0.1471,0.147,0.1557,0.1479,0.1478,0.1478,0.1478,0,0.1355,0.1382,0.1367,0.1384,0.1414,0.14,0.143,0.143,0.1434,0.1452,0.1434,0.1452,0.1441,0.1458,0.1453,0.1484,0.1488,0.1487,0.1485,0.1488,0.1488,0.1493,0.1489,0.148,0.148,0.148,0.1479,0,0.1422,0.1413,0.1442,0.1441,0.1441,0.1463,0.1463,0.148,0.1476,0.1499,0.1504,0.1499,0.1518,0.1512,0.1534,0.153,0.1569,0.1563,0.1567,0.1565,0.1593,0.159,0.1686,0.1697,0.1612,0.1613,0.1614,0,0.1463,0.1483,0.1483,0.1493,0.1495,0.1512,0.1521,0.1509,0.152,0.1529,0.1545,0.1563,0.1576,0.1609,0.1608,0.1625,0.1618,0.1651,0.1621,0.1623,0.1618,0.1617,0.1619,0.1657,0.1658,0.1658,0.1659,0,0.1537,0.1531,0.1544,0.1556,0.1567,0.1576,0.1583,0.1593,0.1582,0.1595,0.1614,0.1624,0.1646,0.1664,0.168,0.1683,0.167,0.1669,0.1676,0.1678,0.1679,0.1679,0.1582,0.1666,0.1665,0.1665,0.1665,0.1664,0.1592,0.1608,0.1611,0.1626,0.163,0.1638,0.1653,0.1652,0.1666,0.1682,0.1675,0.1697,0.1704,0.1723,0.1729,0.1748,0.1735,0.1746,0.1748,0.1751,0.1754,0.1677,0.1751,0.175,0.175,0.175,0.175,0,0.1664,0.1664,0.1678,0.1689,0.1701,0.1686,0.1694,0.1706,0.1725,0.1732,0.1746,0.1768,0.1786,0.1787,0.1804,0.1819,0.1813,0.1824,0.1822,0.1824,0.1765,0.1756,0.1828,0.1828,0.1828,0.1828,0.1828,0.1828,0.1702,0.1729,0.1725,0.1754,0.1755,0.1775,0.1781,0.1789,0.1794,0.182,0.1834,0.1834,0.1839,0.1857,0.1873,0.1873,0.188,0.1893,0.1891,0.1836,0.1828,0.182,0.1812,0.1895,0.1895,0.1948,0.1949,0.1949]},{"header":{"parameterUnit":"m.s-1","parameterCategory":1,"la1":30.2991,"la2":30.254,"lo1":-89.0895,"lo2":-89.0444,"dx":0.0017,"dy":0.0017,"nx":28,"ny":28,"refTime":"2022-12-03T09:00:00:Z","depth":0,"parameterNumber":3,"parameterNumberName":"V-component_of_WINDS"},"data":[0,0,0,0,0,0,0,0,0,0,0,0,0,0,0,0,0,0,0,0,0,0,0,0,0,0,0,0,0,0,0,0,0,0,0,0,0,0,0,0,0,0,0,0,0,0,0,0,0,0,0,0,0,0,0,0,0,0,0.3195,0.3193,0,0.3017,0.3015,0.3013,0.2884,0.2883,0.2882,0.2881,0.269,0.2686,0.2682,0,0,0,0,0,0,0,0,0,0,0,0,0,0.3415,0.3412,0.3195,0.3193,0.3191,0.3017,0.3015,0.3012,0.2885,0.2883,0.2882,0.2881,0.2692,0.2687,0.2682,0,0,0,0,0,0,0,0,0,0,0,0,0,0.3286,0.3411,0.3195,0.3106,0.3096,0.3018,0.3015,0.3012,0.2885,0.2883,0.2882,0.288,0.2693,0.2687,0.2681,0.2674,0,0,0.2662,0.2659,0,0,0,0,0,0,0,0,0.3294,0.3278,0.3122,0.3112,0.3101,0.2971,0.3022,0.2898,0.2885,0.2965,0.2881,0.288,0.2784,0.2771,0.274,0.2665,0.2657,0.2662,0.2658,0.2655,0.2653,0,0,0,0,0,0,0,0.3303,0.3285,0.3124,0.3119,0.3107,0.3072,0.3052,0.2998,0.2885,0.2958,0.2948,0.2929,0.2778,0.2747,0.2735,0.2654,0.2662,0.2656,0.2652,0.265,0.2561,0.2562,0,0,0,0,0,0,0.3327,0.3294,0.313,0.3119,0.3196,0.3069,0.3047,0.3014,0.2886,0.2865,0.2931,0.2924,0.2758,0.2742,0.2728,0.2709,0.2655,0.2649,0.2646,0.256,0.2561,0.2563,0,0,0,0,0,0,0.3332,0.3314,0.3137,0.3204,0.3178,0.3067,0.3032,0.3012,0.298,0.2865,0.2844,0.292,0.2756,0.2736,0.2688,0.2701,0.2647,0.2641,0.2558,0.256,0.2562,0.2674,0,0,0,0,0,0,0.3339,0.3316,0.3315,0.3205,0.3176,0.3104,0.3033,0.3009,0.2971,0.296,0.2849,0.2829,0.2753,0.2698,0.2682,0.2691,0.2636,0.2556,0.2559,0.2561,0.2668,0.2679,0.2689,0,0,0,0,0,0.3348,0.3352,0.3316,0.3296,0.3172,0.3105,0.3088,0.3003,0.2972,0.2968,0.2894,0.2833,0.2703,0.2695,0.2675,0.2683,0.2555,0.2558,0.2561,0.2664,0.2677,0.2688,0,0,0,0,0,0,0.3463,0.3336,0.3294,0.3264,0.3197,0.3084,0.3076,0.302,0.2958,0.2951,0.2846,0.2821,0.2784,0.2728,0.2722,0.2668,0.2621,0.262,0.2706,0.2717,0.2727,0.274,0.2631,0,0,0,0,0,0.3486,0.3446,0.3335,0.3318,0.3287,0.3188,0.3156,0.3097,0.3021,0.2991,0.2914,0.2841,0.2783,0.2747,0.2688,0.266,0.2632,0.2655,0.2666,0.2675,0.2675,0.2653,0.2662,0.2573,0.2573,0.2573,0,0,0.3531,0.3456,0.3437,0.334,0.3281,0.3238,0.3165,0.3123,0.3089,0.2984,0.2934,0.2875,0.2786,0.2748,0.2727,0.27,0.2693,0.2678,0.2687,0.2681,0.2657,0.2666,0.2673,0.2575,0.2574,0.2574,0,0,0.3591,0.3532,0.3511,0.3454,0.3367,0.33,0.3296,0.3191,0.3148,0.3098,0.3018,0.2974,0.2878,0.2818,0.2774,0.2812,0.2751,0.2795,0.2847,0.2828,0.2835,0.284,0.2851,0.2857,0.2796,0.2796,0.2796,0,0.3657,0.3593,0.3506,0.3469,0.3428,0.3334,0.331,0.3258,0.3155,0.3127,0.3099,0.2976,0.2909,0.2855,0.2864,0.2833,0.2821,0.2806,0.2841,0.2846,0.285,0.2859,0.2864,0.2802,0.2801,0.28,0.28,0,0.3677,0.3633,0.3626,0.3532,0.349,0.346,0.3366,0.3333,0.3278,0.3214,0.3162,0.3079,0.3001,0.2984,0.2928,0.292,0.2906,0.2862,0.2812,0.2866,0.2872,0.2875,0.281,0.2808,0.2806,0.2805,0,0,0.3804,0.3663,0.3662,0.3617,0.3514,0.3477,0.3442,0.3368,0.3341,0.3272,0.3238,0.3159,0.3117,0.3068,0.3004,0.2988,0.302,0.2944,0.294,0.2959,0.3003,0.3036,0.3042,0.298,0.298,0.2981,0.301,0,0.3846,0.3781,0.3702,0.3662,0.3619,0.3529,0.3497,0.3429,0.3368,0.332,0.3251,0.3196,0.3146,0.3116,0.3095,0.3021,0.3027,0.3017,0.2943,0.2942,0.2967,0.3046,0.3081,0.3113,0.3012,0.3013,0.3013,0,0.3887,0.3826,0.3783,0.3683,0.3662,0.3636,0.3561,0.3518,0.3437,0.3394,0.334,0.3272,0.3227,0.3185,0.3118,0.3114,0.3079,0.3037,0.3036,0.3024,0.298,0.3034,0.3121,0.3125,0.3017,0.3016,0.3016,0,0.3981,0.3889,0.385,0.3815,0.3698,0.3682,0.3631,0.355,0.351,0.3444,0.3416,0.3345,0.3305,0.325,0.3164,0.3142,0.3106,0.3057,0.3066,0.3068,0.3061,0.3062,0.3141,0.3042,0.3042,0.3042,0.3042,0,0.4036,0.4012,0.3891,0.3868,0.3838,0.3746,0.3718,0.3659,0.3587,0.3548,0.3465,0.3429,0.3319,0.3269,0.3201,0.3155,0.3138,0.3099,0.3081,0.3106,0.3111,0.308,0.3075,0.3043,0.3043,0.3043,0.3042,0,0.4136,0.4054,0.4006,0.39,0.3873,0.3855,0.3763,0.3734,0.3669,0.3621,0.3604,0.35,0.3437,0.3347,0.3255,0.3209,0.3173,0.3145,0.3201,0.319,0.3203,0.3202,0.3263,0.3266,0.3168,0.3169,0.317,0,0.4175,0.4155,0.4048,0.4017,0.3971,0.3923,0.3882,0.3791,0.3752,0.3659,0.3641,0.3573,0.3513,0.3416,0.333,0.3259,0.3227,0.3253,0.3215,0.3241,0.3225,0.3227,0.3223,0.3262,0.3263,0.3265,0.3266,0,0.4253,0.4214,0.4161,0.4094,0.4049,0.3991,0.3929,0.3908,0.3802,0.3762,0.3698,0.3652,0.356,0.3491,0.3409,0.3353,0.3291,0.3279,0.3276,0.33,0.3333,0.3314,0.3224,0.3277,0.3276,0.3275,0.3275,0.3274,0.4321,0.4299,0.4221,0.4164,0.4108,0.4052,0.402,0.3952,0.3899,0.3819,0.3767,0.3706,0.3623,0.3507,0.3454,0.3402,0.3376,0.3374,0.3373,0.3373,0.3381,0.3344,0.3387,0.3386,0.3386,0.3386,0.3385,0,0.4393,0.4339,0.4288,0.4205,0.416,0.4109,0.4037,0.4002,0.395,0.388,0.3824,0.375,0.3683,0.3593,0.3519,0.3494,0.3464,0.3478,0.3477,0.3465,0.3409,0.3418,0.3504,0.3504,0.3504,0.3504,0.3504,0.3504,0.4425,0.4385,0.4336,0.4266,0.421,0.4152,0.4115,0.4062,0.4006,0.3928,0.3873,0.3816,0.3737,0.3657,0.3592,0.3567,0.3542,0.3565,0.3531,0.348,0.3469,0.3459,0.3466,0.3561,0.3561,0.3591,0.3591,0.3591]}]]